星链-30226 (STARLINK-30226 )

导读 | 星芒AI

STARLINK-30226 是 SpaceX 星链计划中的一颗低轨通信卫星,属于第 11 批组网卫星(Batch 11)。它于 2022 年 10 月 21 日由猎鹰 9 号火箭从美国卡纳维拉尔角发射升空,部署在约 550 公里的轨道高度。该卫星采用星链第二代改进设计,具备增强的通信能力和更高效的星间链路,旨在为全球用户提供高速、低延迟的互联网服务。作为星链星座的重要组成部分,它有助于扩大覆盖范围并提升网络性能。

基本信息
目录编号:
57497
目录名称:
STARLINK-30226
国际标识:
2023-113C
轨道中心:
EARTH
卫星名称:
星链-30226
卫星全名:
星链-30226 (STARLINK-30226 )
卫星状态:
在轨 (已飞行815 天)
发射日期:
2023-08-07 UTC
国别 :
美国 (US)
星等 :
--
轨道信息
数据来源 国际轨道数据
星历时间: 2025-10-30T05:25:10+0800
21小时前
查看轨道信息
半长轴: 6937.21km
偏心率: 0.0001242
轨道倾角: 43.004°
近地点辐角 262.893°
升交点赤经 8.171°
平近点角 97.177°
近地点: 558.213km
远地点: 559.937km
周期: 95.838分钟
每日圈数: 15.025383
详细信息
固有亮度:
5
最大亮度:
0.3
卫星平台:
Starlink v2.0 mini
覆盖范围:
全球
运营商:
太空探索技术公司
运营商所在国:
美国
制造商(研发单位):
太空探索技术公司
制造商所在国:
美国
使用方式:
暂无
卫星简介
星链(Starlink)计划是由太空探索技术公司(SpaceX)提出的一个巨型低轨卫星互联网星座项目,计划在2019年至2024年间在太空搭建由约1.2万颗卫星组成的“星链”网络,其中1584颗将部署在地球上空550千米处的近地轨道,并从2020年开始工作。该卫星仍在工作。
2D轨道图
3D轨道图
轨道高度分析图
轨道倾角分析图
轨道综合分析图
查看轨道综合分析图